Wind_Speed
42 45 49 48 46 50 58 56 52 49 45 41 39 37 29 22 16 7 1 6 5 12 15 18 22 28 26 23 23 26 22 24 23 26 27 26 27 30 33 39 43 41 38 40
43 45 50 51 50 50 57 62 58 54 51 48 44 36 36 27 19 14 6 6 8 7 12 15 19 26 27 28 28 26 24 28 29 28 28 28 30 36 33 36 37 36 34 31
39 44 49 54 55 54 55 65 63 59 56 52 50 43 39 34 25 19 14 10 8 7 9 11 15 26 26 28 30 30 28 29 28 28 30 32 33 33 30 29 28 29 25 24
41 46 51 56 60 59 58 61 68 65 61 57 53 49 44 39 33 24 20 16 12 8 9 13 12 21 26 26 31 35 27 28 26 27 28 28 28 26 25 25 23 19 17 16
37 44 52 57 60 63 62 62 69 70 66 63 57 53 47 42 38 30 25 22 16 12 11 14 14 15 22 24 28 31 30 29 28 25 25 21 21 18 16 19 13 12 15 13
41 46 50 56 63 65 67 66 69 75 72 68 63 62 55 48 42 37 30 25 22 19 16 16 15 16 18 22 23 27 31 29 25 32 34 31 25 27 27 28 28 27 26 22
31 42 50 59 59 66 69 71 70 76 77 73 70 67 56 53 47 42 36 30 28 23 20 20 22 20 17 20 18 25 28 27 25 27 24 24 24 25 25 30 30 30 32 32
21 26 40 55 66 68 68 73 74 74 80 78 74 70 63 56 53 47 42 36 30 29 27 22 25 23 21 20 19 21 21 25 25 21 21 21 23 26 27 26 27 28 29 32
23 21 24 44 66 74 68 73 79 75 76 81 78 74 69 63 58 52 47 42 36 34 33 27 25 25 24 23 22 23 23 23 22 22 20 20 18 19 20 20 20 22 22 24
20 26 19 27 53 74 75 75 76 79 78 80 82 79 73 68 63 57 53 46 41 36 39 31 28 26 27 27 25 23 23 20 19 18 16 15 14 15 12 12 14 17 18 19
19 23 25 16 32 61 79 80 78 77 78 79 82 84 78 72 68 63 58 49 48 44 42 37 33 29 25 28 28 27 25 21 17 16 14 12 11 10 9 11 11 11 14 15
19 21 24 25 18 42 68 89 82 83 85 81 80 87 82 77 73 67 61 57 54 50 47 46 41 34 30 27 28 28 25 21 18 16 13 12 11 10 6 6 10 12 12 11
21 20 19 21 20 26 43 77 92 89 89 87 84 87 86 81 78 71 67 61 58 54 48 50 47 44 40 35 31 30 27 24 19 17 15 13 10 6 6 6 8 10 11 10
24 20 17 19 23 16 33 54 83 92 94 91 88 88 90 87 82 78 73 65 63 59 56 54 56 50 47 43 38 35 34 30 24 21 19 15 12 10 8 8 8 13 13 12
24 21 19 20 22 24 19 43 71 97 99 92 89 90 91 91 87 84 79 73 71 68 63 61 59 57 52 51 46 43 40 38 31 27 24 20 17 15 11 13 16 18 15 15
24 23 19 21 21 23 22 33 55 90 99 95 85 82 94 95 91 87 83 79 77 73 70 67 65 60 57 53 55 50 46 43 39 35 30 28 24 22 20 19 23 22 26 22
23 22 22 22 23 20 25 26 50 84 99 95 96 93 92 94 94 91 89 85 80 77 74 70 66 65 61 55 54 58 52 49 44 41 38 34 31 24 24 24 23 28 27 26
25 24 25 25 25 27 26 29 44 79 99 96 96 92 89 95 98 95 93 87 83 81 78 75 70 67 67 63 57 57 58 55 52 46 46 42 40 36 33 30 28 29 34 34
27 26 27 27 28 28 30 30 39 69 99 100 98 95 89 94 97 96 95 93 88 85 81 79 77 73 71 72 66 62 61 62 59 54 51 48 44 42 43 40 33 30 33 33
28 27 28 29 28 30 36 33 40 56 92 104 99 97 96 93 92 96 96 93 92 90 86 82 81 78 75 75 72 71 66 67 63 59 58 53 52 50 49 46 43 36 30 41
26 28 29 30 30 35 39 35 39 51 82 104 100 100 104 97 93 94 98 95 91 91 91 86 84 80 78 80 77 74 73 72 71 68 67 63 61 59 56 53 49 45 43 40
25 27 29 29 34 35 38 33 40 51 68 102 104 103 92 97 100 96 93 97 95 91 89 89 85 80 78 78 80 80 78 77 77 75 72 69 65 64 57 59 53 54 55 52
28 29 30 29 34 39 31 32 41 51 59 89 103 101 98 103 101 95 92 92 96 95 93 88 86 84 80 79 77 79 83 80 78 79 79 77 71 68 62 59 56 55 60 55
29 30 30 31 35 41 28 30 40 50 58 73 101 97 96 100 98 90 86 94 95 93 92 91 90 87 85 83 83 82 84 85 84 82 79 77 76 74 72 69 63 58 63 65
29 30 31 32 36 40 25 27 37 47 57 65 87 99 97 98 102 101 99 92 92 95 93 91 94 90 90 91 89 87 87 86 82 83 81 80 80 78 78 78 77 74 75 73
27 28 30 30 40 33 20 20 29 43 54 59 64 87 90 101 105 98 96 93 92 86 90 96 95 91 92 92 93 91 90 90 87 84 80 78 78 79 80 82 81 81 82 83
Wind_Direction
232 227 223 228 225 215 213 214 211 211 210 200 195 196 206 217 222 211 135 84 102 79 67 60 59 65 60 66 71 80 81 81 94 107 117 118 117 112 120 127 124 126 124 122
227 225 222 223 224 221 212 213 213 211 211 212 207 210 217 218 217 212 188 130 99 98 83 72 69 75 71 73 76 85 91 86 93 101 111 119 122 120 123 129 126 126 117 116
233 227 224 221 221 221 216 212 212 213 211 212 213 210 213 217 215 209 192 176 130 100 114 93 81 87 80 80 88 88 86 86 90 99 111 121 126 124 123 125 123 121 115 120
236 229 227 222 220 220 219 212 212 213 212 211 213 214 209 214 215 210 196 194 174 133 143 121 102 98 91 86 94 91 100 94 94 96 107 120 128 126 124 120 108 104 105 111
240 236 229 226 223 219 218 213 211 211 214 212 210 212 206 204 210 211 194 197 181 165 163 151 132 122 111 102 98 97 95 101 90 97 103 114 130 130 100 122 110 109 104 117
247 237 233 228 227 221 216 215 210 209 211 213 209 212 206 205 206 211 197 197 186 185 168 164 154 142 132 125 113 104 100 96 105 98 97 100 108 97 96 92 93 94 94 97
264 244 231 227 226 223 215 212 212 208 210 213 212 214 209 206 207 208 203 199 192 188 176 170 161 152 151 145 136 125 114 111 106 104 92 92 92 90 94 86 86 87 91 92
311 260 239 225 220 220 215 212 210 210 208 211 214 214 209 208 203 206 204 201 197 188 181 172 169 162 158 152 142 133 136 126 120 117 109 103 95 97 93 89 83 83 92 88
328 324 252 229 222 214 217 210 209 210 211 209 213 214 210 206 206 202 205 203 197 196 186 187 180 170 163 157 149 137 127 125 133 125 112 109 106 118 111 106 106 102 92 93
319 338 322 247 225 217 210 207 208 208 210 210 211 213 212 206 208 203 202 201 199 200 187 187 187 184 180 171 165 157 150 145 139 135 125 123 109 108 120 133 119 115 117 109
317 330 346 304 231 217 211 205 205 207 209 210 210 211 211 208 207 205 203 200 202 199 192 191 188 186 185 178 176 174 166 161 161 158 155 145 140 125 94 132 130 136 137 133
301 320 335 348 263 223 212 206 206 208 210 208 210 211 209 208 208 207 205 200 204 206 197 198 192 191 192 188 185 180 178 178 177 176 170 160 156 163 139 125 146 142 149 149
305 312 326 344 331 239 222 210 207 209 208 208 208 210 208 207 209 206 206 201 203 207 203 202 198 197 196 195 198 200 193 194 194 192 184 178 176 180 189 197 187 182 183 188
303 303 311 324 341 304 232 216 208 207 206 205 207 209 208 206 208 207 207 201 203 206 208 202 204 203 203 200 207 205 205 202 207 204 206 210 215 212 218 225 205 211 213 206
289 294 299 308 317 326 268 221 208 203 204 204 205 209 208 205 206 208 208 204 203 206 209 208 205 208 205 207 208 214 212 210 207 210 215 223 232 233 230 221 208 229 232 232
282 289 293 299 302 325 301 236 214 202 203 202 197 208 209 206 206 209 209 207 208 209 210 210 208 209 211 214 210 214 218 219 216 214 215 222 228 235 233 231 222 229 243 251
275 282 286 292 291 304 317 253 217 204 202 203 200 207 213 208 207 208 210 210 209 211 210 212 211 214 214 220 220 215 217 218 219 226 221 225 231 235 243 248 244 237 243 247
270 279 282 286 286 291 308 274 225 206 203 203 204 202 215 211 209 208 210 209 210 212 210 212 212 215 217 219 224 224 221 221 224 228 228 228 231 240 246 252 256 250 244 243
272 278 281 287 283 290 295 284 234 212 204 205 206 203 210 216 211 210 211 211 211 213 214 213 214 216 219 220 223 227 226 228 229 230 232 235 235 236 244 249 258 262 255 250
273 282 287 290 287 291 297 280 237 217 207 207 206 205 206 218 216 212 213 213 214 214 215 216 215 220 221 223 224 227 228 228 232 235 234 238 241 243 246 249 253 256 249 253
280 285 287 288 289 289 299 274 237 219 210 207 206 207 206 215 219 216 214 213 215 216 218 218 223 224 224 224 225 227 231 231 232 234 237 240 243 247 247 250 253 255 258 256
289 292 291 288 291 298 303 262 232 221 213 207 206 207 207 211 219 220 217 216 218 219 221 222 223 225 225 227 226 226 230 233 234 237 240 241 245 247 250 252 250 254 259 258
292 298 295 294 300 310 295 250 228 220 215 209 207 207 208 213 218 223 223 223 223 222 221 225 227 226 227 227 229 234 232 234 236 238 239 243 245 248 248 247 244 250 252 247
296 299 297 299 307 318 289 244 224 218 214 210 207 207 209 214 217 216 224 223 224 224 223 224 226 227 227 228 231 233 235 238 239 239 240 241 245 246 246 247 245 243 250 254
295 301 303 308 318 317 286 242 221 218 213 212 207 207 210 208 213 218 219 225 226 224 225 226 228 228 228 230 231 234 235 238 243 244 244 245 245 247 248 247 251 249 250 249
295 303 306 321 325 315 285 241 217 213 211 212 207 209 206 209 210 218 221 219 227 227 229 228 229 229 232 232 234 235 237 237 239 241 244 245 250 251 248 251 251 253 252 251
Height
10886 10891 10897 10905 10914 10920 10929 10937 10945 10950 10958 10967 10970 10975 10979 10983 10987 10990 10989 10989 10987 10987 10986 10982 10978 10971 10967 10962 10959 10959 10959 10958 10956 10954 10956 10958 10959 10959 10960 10961 10962 10962 10962 10963
10875 10880 10887 10895 10901 10909 10917 10925 10936 10944 10951 10959 10966 10972 10975 10981 10985 10989 10990 10989 10989 10988 10988 10987 10983 10978 10974 10970 10967 10966 10966 10965 10962 10961 10962 10964 10965 10966 10968 10970 10969 10969 10971 10973
10866 10870 10875 10882 10889 10896 10905 10915 10926 10936 10943 10951 10959 10965 10971 10978 10983 10986 10989 10989 10989 10988 10989 10990 10987 10984 10981 10978 10976 10974 10973 10972 10971 10970 10970 10971 10974 10974 10976 10978 10978 10978 10978 10978
10853 10857 10863 10869 10876 10884 10892 10905 10915 10926 10934 10943 10950 10958 10966 10971 10979 10983 10986 10988 10990 10989 10990 10990 10991 10989 10987 10986 10982 10981 10981 10980 10979 10980 10979 10979 10980 10982 10983 10983 10984 10985 10984 10983
10841 10845 10849 10855 10863 10871 10882 10890 10901 10914 10925 10932 10942 10949 10959 10966 10972 10978 10983 10986 10989 10990 10990 10991 10992 10992 10992 10992 10989 10987 10988 10987 10986 10985 10986 10986 10987 10988 10988 10989 10990 10991 10990 10989
10828 10831 10835 10841 10847 10857 10867 10878 10888 10900 10912 10922 10932 10938 10950 10957 10965 10972 10979 10983 10986 10989 10991 10992 10993 10994 10995 10996 10995 10993 10992 10993 10993 10993 10993 10993 10994 10994 10994 10994 10994 10994 10994 10993
10812 10814 10819 10825 10831 10840 10853 10864 10876 10888 10900 10911 10920 10929 10940 10949 10958 10965 10973 10979 10983 10986 10989 10991 10993 10994 10995 10997 10998 10999 10998 10998 10998 10998 10999 10999 10999 10999 11000 11001 11001 11001 11000 10999
10803 10801 10803 10807 10814 10823 10837 10851 10863 10873 10886 10899 10910 10918 10930 10940 10949 10958 10965 10972 10979 10982 10986 10988 10992 10994 10995 10996 10999 11000 11002 11002 11002 11002 11003 11005 11005 11005 11004 11006 11007 11007 11007 11005
10797 10791 10789 10792 10797 10806 10821 10834 10846 10863 10876 10888 10899 10909 10920 10930 10941 10950 10958 10966 10972 10978 10982 10986 10990 10993 10995 10996 10999 11001 11003 11003 11004 11006 11007 11009 11009 11009 11011 11011 11012 11012 11012 11011
10791 10786 10779 10777 10780 10790 10802 10820 10835 10850 10858 10872 10885 10897 10908 10920 10930 10941 10950 10960 10966 10973 10978 10983 10986 10990 10993 10995 10997 11000 11002 11004 11005 11007 11008 11010 11011 11012 11014 11014 11015 11015 11015 11015
10785 10780 10774 10768 10767 10773 10789 10805 10819 10835 10851 10858 10869 10880 10896 10910 10919 10930 10942 10952 10958 10965 10973 10978 10983 10987 10990 10993 10995 10998 11000 11003 11005 11007 11008 11010 11011 11013 11014 11015 11015 11016 11016 11017
10779 10775 10769 10763 10760 10760 10773 10791 10805 10819 10828 10844 10859 10869 10883 10897 10908 10920 10932 10942 10951 10955 10963 10971 10977 10982 10985 10990 10992 10995 10998 11001 11004 11006 11007 11009 11011 11012 11014 11015 11016 11017 11018 11018
10772 10770 10766 10761 10755 10754 10759 10772 10786 10801 10811 10827 10841 10855 10870 10885 10897 10909 10920 10932 10942 10947 10957 10965 10970 10974 10978 10984 10988 10992 10994 10998 11001 11004 11006 11007 11009 11011 11013 11014 11015 11016 11017 11018
10763 10762 10761 10757 10752 10749 10750 10756 10771 10785 10798 10811 10827 10841 10857 10872 10884 10897 10909 10920 10933 10939 10946 10954 10961 10966 10971 10976 10981 10987 10990 10993 10997 11001 11004 11006 11007 11008 11010 11012 11013 11015 11016 11015
10756 10754 10753 10751 10748 10744 10743 10747 10757 10771 10784 10802 10815 10826 10843 10858 10871 10882 10896 10908 10918 10927 10933 10942 10949 10955 10961 10968 10974 10979 10984 10987 10991 10995 10999 11002 11004 11005 11007 11009 11010 11010 11012 11012
10747 10746 10744 10744 10743 10739 10736 10738 10745 10757 10773 10787 10804 10812 10827 10844 10858 10870 10883 10894 10904 10914 10923 10929 10938 10945 10952 10957 10963 10970 10976 10981 10984 10988 10992 10995 10997 11000 11002 11004 11004 11006 11006 11007
10739 10738 10736 10735 10734 10734 10731 10730 10735 10746 10762 10777 10791 10804 10814 10831 10843 10855 10866 10879 10890 10901 10911 10920 10929 10936 10942 10949 10955 10961 10966 10971 10976 10981 10984 10987 10990 10993 10994 10996 10998 10999 11000 11002
10730 10729 10727 10726 10725 10725 10724 10720 10724 10734 10749 10763 10778 10793 10801 10816 10829 10842 10853 10865 10877 10887 10898 10908 10917 10926 10933 10939 10945 10952 10958 10962 10967 10971 10976 10978 10981 10985 10987 10990 10992 10992 10992 10993
10720 10719 10717 10716 10715 10715 10713 10711 10713 10721 10735 10748 10762 10780 10789 10800 10817 10831 10841 10852 10864 10874 10884 10896 10906 10913 10919 10926 10934 10940 10947 10951 10956 10961 10966 10970 10972 10974 10977 10980 10983 10983 10984 10985
10710 10709 10707 10706 10704 10703 10701 10698 10699 10708 10722 10733 10750 10766 10781 10787 10802 10820 10830 10840 10851 10861 10872 10883 10892 10900 10909 10915 10922 10927 10934 10940 10945 10949 10953 10957 10961 10963 10966 10970 10974 10974 10976 10977
10701 10699 10697 10695 10692 10690 10689 10683 10686 10693 10702 10720 10739 10752 10767 10775 10790 10802 10817 10829 10839 10850 10860 10870 10877 10887 10896 10902 10909 10917 10921 10927 10931 10936 10939 10944 10949 10952 10956 10960 10964 10964 10965 10966
10691 10689 10687 10684 10681 10677 10672 10668 10672 10678 10686 10701 10721 10738 10756 10767 10775 10787 10803 10817 10825 10837 10847 10855 10863 10873 10880 10889 10896 10902 10907 10913 10916 10922 10926 10931 10936 10940 10944 10947 10950 10952 10952 10953
10682 10679 10676 10674 10669 10664 10656 10654 10656 10663 10673 10690 10710 10727 10742 10754 10764 10777 10790 10800 10809 10821 10832 10842 10850 10859 10866 10873 10881 10886 10892 10896 10901 10906 10912 10918 10923 10926 10930 10933 10935 10936 10937 10937
10673 10670 10666 10662 10656 10649 10642 10639 10641 10649 10659 10672 10690 10711 10724 10738 10751 10761 10768 10781 10794 10807 10817 10827 10833 10841 10851 10860 10865 10871 10876 10880 10885 10891 10896 10902 10906 10910 10913 10916 10921 10921 10920 10922
10665 10661 10656 10652 10644 10636 10630 10626 10629 10638 10647 10659 10676 10695 10710 10725 10733 10737 10754 10765 10778 10790 10801 10807 10815 10826 10832 10838 10845 10852 10859 10865 10870 10874 10881 10885 10889 10893 10895 10895 10904 10905 10904 10903
10656 10652 10648 10642 10634 10624 10619 10617 10622 10629 10640 10654 10672 10685 10697 10705 10713 10725 10743 10754 10763 10775 10782 10790 10799 10808 10816 10821 10827 10835 10842 10848 10853 10859 10862 10865 10868 10873 10877 10876 10882 10884 10885 10886